Location: Chuathbaluk
(61.5726°N, 159.2454°W)
Time: 03:59:44
(UTC+00:00)

Transit 4A - Pass Details

Date: 30 November 2020
Orbit: 864 x 980 km, 66.8° (Epoch: 26 January)

Event Time Altitude Azimuth Distance (km) Brightness Sun altitude
Rises 21:55:19 0° 268° (W) 3,679 11.0 6.4°
Reaches altitude 10° 21:57:57 10° 273° (W) 2,737 10.3 6.4°
Maximum altitude 22:04:16 56° 351° (N) 1,159 8.2 6.5°
Drops below altitude 10° 22:10:34 10° 70° (ENE) 2,727 10.2 6.5°
Sets 22:13:11 0° 75° (ENE) 3,664 10.9 6.6°
